This demonstration page uses our WeatherBlox Daily Observations layout. Learn more.

Left ArrowRight Arrow

39.12711, -84.51439

Hourly Observations for September 19, 2018

Temp ( °F °C ) Dew Point ( °F °C ) Humidity (%) Winds ( mph kmh ) Pressure ( in mb ) Visibility ( mi km ) Precip ( " mm )
12:53 am 00:53 Clear with Mist and Fog 68 20 68 20 100 100 Calm 29.91 1013 5 8 0.00 0.00
1:53 am 01:53 Clear with Mist and Fog 69 20.6 69 20.6 100 100 Calm 29.92 1013 3 5 0.00 0.00
2:43 am 02:43 Clear with Mist and Fog 67 19.4 67 19.4 100 100 Calm 29.91 1013 2 3 0.00 0.00
2:53 am 02:53 Clear with Mist and Fog 68 20 68 20 100 100 Calm 29.92 1013 3 5 0.00 0.00
3:00 am 03:00 Clear with Mist and Fog 67 19.4 67 19.4 100 100 Calm 29.91 1013 2 3 0.00 0.00
3:24 am 03:24 Clear with Mist and Fog 68 20 68 20 100 100 Calm 29.91 1013 3 5 0.00 0.00
3:30 am 03:30 Clear with Mist and Fog 67 19.4 67 19.4 100 100 Calm 29.91 1013 2 3 0.00 0.00
3:40 am 03:40 Clear with Mist and Fog 67 19.4 67 19.4 100 100 Calm 29.91 1013 3 5 0.00 0.00
3:53 am 03:53 Clear with Mist and Fog 67 19.4 67 19.4 100 100 Calm 29.92 1013 3 5 0.00 0.00
4:53 am 04:53 Clear with Mist and Fog 67 19.4 67 19.4 100 100 Calm 29.93 1014 5 8 0.00 0.00
4:59 am 04:59 Mostly Clear with Mist and Fog 66 18.9 66 18.9 100 100 Calm 29.91 1013 2 3 0.00 0.00
5:08 am 05:08 Mostly Clear with Mist and Fog 67 19.4 67 19.4 100 100 Calm 29.91 1013 3 5 0.00 0.00
5:28 am 05:28 Mostly Clear with Mist and Fog 66 18.9 66 18.9 100 100 Calm 29.91 1013 2 3 0.00 0.00
5:31 am 05:31 Mostly Cloudy with Mist and Fog 65 18.3 65 18.3 100 100 SSW 3 6 29.91 1013 1 1 0.00 0.00
5:44 am 05:44 Mostly Cloudy with Fog 65 18.3 65 18.3 100 100 SSW 3 6 29.91 1013 0 0 0.00 0.00
5:53 am 05:53 Mostly Cloudy with Fog 66 18.9 66 18.9 100 100 SW 3 6 29.94 1014 0 0 0.00 0.00
6:53 am 06:53 Mostly Cloudy with Fog 66 18.9 66 18.9 100 100 Calm 29.96 1015 0 0 0.00 0.00
7:44 am 07:44 Mostly Cloudy with Fog 66 18.9 66 18.9 100 100 Calm 29.97 1015 1 1 0.00 0.00
7:53 am 07:53 Mostly Cloudy with Fog 67 19.4 67 19.4 100 100 Calm 29.99 1016 1 1 0.00 0.00
7:58 am 07:58 Partly Cloudy with Mist and Fog 67 19.4 67 19.4 100 100 Calm 29.97 1015 3 5 0.00 0.00
8:53 am 08:53 Mostly Cloudy 69 20.6 69 20.6 100 100 Calm 29.99 1016 8 13 0.00 0.00
9:53 am 09:53 Mostly Cloudy 73 22.8 72 22.2 96 96 Calm 29.99 1016 8 13 0.00 0.00
10:53 am 10:53 Mostly Sunny 77 25 72 22.2 85 85 SW 3 6 30.01 1016 10 16 0.00 0.00
11:53 am 11:53 Mostly Sunny 81 27.2 74 23.3 79 79 Calm 30.01 1016 10 16 0.00 0.00
12:53 pm 12:53 Partly Cloudy 85 29.4 74 23.3 70 70 Calm 30.01 1016 10 16 0.00 0.00
1:53 pm 13:53 Mostly Sunny 86 30 74 23.3 67 67 ESE 3 6 29.99 1016 10 16 0.00 0.00
2:53 pm 14:53 Mostly Sunny 89 31.7 72 22.2 57 57 Calm 29.97 1015 10 16 0.00 0.00
3:53 pm 15:53 Partly Cloudy 89 31.7 72 22.2 57 57 Calm 29.96 1015 10 16 0.00 0.00
4:53 pm 16:53 Partly Cloudy 87 30.6 72 22.2 61 61 SSE 3 6 29.95 1014 10 16 0.00 0.00
5:53 pm 17:53 Partly Cloudy 86 30 74 23.3 67 67 ENE 6 9 29.95 1014 10 16 0.00 0.00
6:53 pm 18:53 Partly Cloudy 84 28.9 76 24.4 77 77 NNE 3 6 29.96 1015 10 16 0.00 0.00
7:53 pm 19:53 Mostly Clear 77 25 76 24.4 96 96 Calm 29.98 1015 9 14 0.00 0.00
8:53 pm 20:53 Clear 74 23.3 74 23.3 100 100 Calm 29.99 1016 9 14 0.00 0.00
9:53 pm 21:53 Clear 73 22.8 73 22.8 100 100 Calm 30.01 1016 8 13 0.00 0.00
10:53 pm 22:53 Clear 73 22.8 73 22.8 100 100 Calm 30.01 1016 7 11 0.00 0.00
11:53 pm 23:53 Clear with Mist and Fog 71 21.7 71 21.7 100 100 Calm 30.01 1016 4 6 0.00 0.00

Powered by AerisWeather